Regional Weather Roundup
Issued by NWS Green Bay, WI

Home | Current Version | Previous Version | Graphics & Text | Print | Product List | Glossary Off
Versions: 1 2 3 4 5 6 7 8 9 10 11 12 13 14 15 16 17 18 19 20 21 22 23 24 25 26 27 28 29 30 31 32 33 34 35 36 37 38 39 40 41 42 43 44 45 46 47 48 49 50

662
ASUS43 KGRB 191011
RWRGRB

NORTH-CENTRAL AND NORTHEAST WISCONSIN REGIONAL WEATHER ROUNDUP
NATIONAL WEATHER SERVICE GREEN BAY WI
400 AM CST THU JAN 19 2017

WIZ005-009-010>012-018-019-191100-
NORTH CENTRAL WISCONSIN

CITY           SKY/WX    TMP DP  RH WIND       PRES   REMARKS
IRONWOOD       CLOUDY    34  33  96 S5        29.82S FOG
MANITOWISH WTR CLOUDY    31  31 100 S5        29.83S FOG
ARBOR VITAE    CLOUDY    32  31  95 S6        29.84S FOG
EAGLE RIVER    FOG       31  31 100 SW7       29.84S VSB 1
LAND O LAKES   FOG       32  32 100 CALM      29.85S VSB 1
RHINELANDER    FOG       31  31 100 SW8       29.86S VSB 1/4
PHILLIPS       FOG       30  30 100 S5        29.85S VSB 1/2
ANTIGO         FOG       29  29 100 SW7       29.88S VSB 1/2
TOMAHAWK       CLOUDY    30  29  96 CALM      29.88S FOG
MERRILL        FOG       31  31 100 SW6         N/A  VSB 3/4
$$

WIZ013-073-191100-
NORTHEAST WISCONSIN

CITY           SKY/WX    TMP DP  RH WIND       PRES   REMARKS
IRON MOUNTAIN  CLOUDY    22  19  89 S3        29.85S FOG
MARINETTE      NOT AVBL
OCONTO         CLOUDY    31  30  95 SW8       29.94S
$$

WIZ017-030-035>037-045-191100-
CENTRAL WISCONSIN

CITY           SKY/WX    TMP DP  RH WIND       PRES   REMARKS
MEDFORD        FOG       31  30  99 S7        29.88S VSB 1/4
WAUSAU         FOG       30  30 100 S9        29.90S VSB 1/2
MOSINEE        SNOW      30  30 100 SW8       29.92F VSB 1/4
MARSHFIELD     FOG       31  31 100 SW6       29.89F VSB 1/4
WISC RAPIDS    CLOUDY    33  33 100 SW6       29.94F FOG
STEVENS POINT  FOG       30  30 100 SW5       29.93F VSB 1/2
WAUPACA        CLOUDY    34  32  92 CALM      29.96S FOG
SHAWANO        CLOUDY    33  31  93 SW6       29.94S FOG
CLINTONVILLE   CLOUDY    32  32 100 SW9       29.94S FOG
WAUTOMA        CLOUDY    33  32  96 SW9       29.96S FOG
$$

WIZ038-039-048-051-191100-
FOX VALLEY

CITY           SKY/WX    TMP DP  RH WIND       PRES   REMARKS
NWS GREEN BAY  CLOUDY    34  33  96 SW8       29.95S FOG
APPLETON       FOG       32  32 100 SW10      29.93F VSB 3/4
OSHKOSH        CLOUDY    33  32  96 SW8       29.96S FOG
FOND DU LAC    CLOUDY    34  31  88 SW12      29.96F FOG
$$

WIZ022-050-052-191100-
EAST CENTRAL WISCONSIN

CITY           SKY/WX    TMP DP  RH WIND       PRES   REMARKS
EPHRAIM        FAIR      31  31  99 SW10G16   29.90S FOG
WASHINGTON ISL FAIR      30  29  96 SW13      29.91R FOG
STURGEON BAY   CLOUDY    31  30  96 SW9       29.93S FOG
MANITOWOC      CLOUDY    33  31  92 MISG      29.97S FOG
SHEBOYGAN      CLOUDY    33  31  92 W8        29.96F FOG
$$

LMZ563-521-522-541>543-191100-
LAKESHORE

STATION/POSITION TIME  TEMP    WIND        PRES    VSBY  WAVE
                       AIR SEA DIR/SP/G                  HT/PER
                 (UTC) (F)     (DEG/KT/KT) (MB)    (MI)  (FT/S)
SHEBOYGAN LKSHOR 1000   34     220/  8/  9 1015.2F
KEWAUNEE LKSHORE 0948   33     220/  5/  9 1014.1R
ALGOMA MARINA    0854          230/  5/  6   N/A
NORTHPORT PIER   0940   32     230/  5/ 11 1012.9R
SISTER BAY LKSHO 0950   33     260/ 11/ 14   N/A
MENOMINEE LKSHOR 0948          210/ 12/ 14 1012.3F
$$




USA.gov is the U.S. government's official web portal to all federal, state and local government web resources and services.